EW9994 Weather Reports


time (UTC)temp
C
wind
direction
speed
KPH
gust
KPH
rain 1hr
cm
rain 24hr
cm
rain mn
cm
humidity
%
barometer
mb
20181216154408 2 86 0.0 4.8 0.00 0.00 0.00 83 1017.9
20181216153906 2 46 0.0 4.8 0.00 0.00 0.00 83 1017.9
20181216153407 2 38 3.2 4.8 0.00 0.00 0.00 82 1017.8
20181216151907 2 257 0.0 1.6 0.00 0.00 0.00 81 1018.0
20181216151407 2 257 0.0 1.6 0.00 0.00 0.00 81 1018.0
20181216150907 2 257 1.6 3.2 0.00 0.00 0.00 80 1018.1
20181216150406 2 257 1.6 4.8 0.00 0.00 0.00 80 1018.1
20181216144907 3 257 3.2 4.8 0.00 0.00 0.00 80 1018.2
20181216144407 3 239 4.8 8.0 0.00 0.00 0.00 78 1018.1
20181216143907 3 266 1.6 3.2 0.00 0.00 0.00 79 1018.2
20181216143406 3 51 1.6 4.8 0.00 0.00 0.00 80 1018.2
20181216140906 2 256 0.0 0.0 0.00 0.00 0.00 81 1018.8
20181216134906 2 256 0.0 0.0 0.00 0.00 0.00 80 1018.9
20181216133407 2 256 0.0 1.6 0.00 0.00 0.00 80 1019.0
20181216131907 2 256 0.0 1.6 0.00 0.00 0.00 82 1019.1
20181216131406 2 256 0.0 1.6 0.00 0.00 0.00 81 1019.1
20181216124906 2 256 1.6 1.6 0.00 0.00 0.00 79 1019.4
20181216123907 2 256 3.2 3.2 0.00 0.00 0.00 81 1019.4
20181216123407 2 256 3.2 8.0 0.00 0.00 0.00 79 1019.3
20181216121906 2 25 0.0 1.6 0.00 0.00 0.00 78 1019.3
20181216121407 2 25 0.0 3.2 0.00 0.00 0.00 78 1019.5
20181216120906 2 25 1.6 4.8 0.00 0.00 0.00 79 1019.5
20181216120406 1 26 1.6 4.8 0.00 0.00 0.00 80 1019.6
20181216114906 1 224 0.0 1.6 0.00 0.00 0.00 79 1020.1
20181216113906 2 223 1.6 8.0 0.00 0.00 0.00 77 1020.4
20181216111907 1 29 0.0 0.0 0.00 0.00 0.00 75 1020.4
20181216111406 1 29 1.6 4.8 0.00 0.00 0.00 75 1020.3
20181216110906 1 37 3.2 8.0 0.00 0.00 0.00 76 1020.2
20181216110406 1 53 4.8 8.0 0.00 0.00 0.00 77 1020.3
20181216104906 1 172 0.0 0.0 0.00 0.00 0.00 78 1020.5
20181216104406 1 172 0.0 0.0 0.00 0.00 0.00 78 1020.6
20181216103906 1 172 0.0 3.2 0.00 0.00 0.00 77 1020.8
20181216103407 1 244 3.2 4.8 0.00 0.00 0.00 77 1020.8
20181216101406 1 72 0.0 0.0 0.00 0.00 0.00 78 1020.9
20181216100907 0 72 0.0 1.6 0.00 0.00 0.00 78 1020.6
20181216100406 0 71 0.0 0.0 0.00 0.00 0.00 79 1020.7
20181216094907 0 71 0.0 0.0 0.00 0.00 0.00 79 1021.3
20181216094417 0 67 0.0 0.0 0.00 0.00 0.00 79 1021.2
20181216091906 0 53 0.0 0.0 0.00 0.00 0.00 82 1021.4
20181216084906 0 53 0.0 1.6 0.00 0.00 0.00 84 1021.4
20181216084406 0 53 0.0 0.0 0.00 0.00 0.00 85 1021.4
20181216083906 0 53 0.0 0.0 0.00 0.00 0.00 85 1021.2
20181216080906 -1 53 0.0 0.0 0.00 0.00 0.00 85 1021.2
20181216074406 -1 46 0.0 0.0 0.00 0.00 0.00 86 1021.2
20181216073906 -1 46 0.0 0.0 0.00 0.00 0.00 86 1021.0
20181216073407 -1 44 0.0 8.0 0.00 0.00 0.00 86 1021.2
20181216071907 -2 31 3.2 4.8 0.00 0.00 0.00 87 1020.8
20181216070906 -2 81 1.6 3.2 0.00 0.00 0.00 86 1020.8
20181216070407 -2 248 0.0 1.6 0.00 0.00 0.00 86 1020.8
20181216064906 -2 248 0.0 3.2 0.00 0.00 0.00 85 1020.7
20181216064406 -2 269 0.0 1.6 0.00 0.00 0.00 85 1020.7
20181216063907 -2 269 0.0 1.6 0.00 0.00 0.00 84 1020.7
20181216063406 -1 269 0.0 3.2 0.00 0.00 0.00 84 1020.6
20181216061906 -1 269 0.0 1.6 0.00 0.00 0.00 84 1021.1
20181216060905 -1 269 0.0 1.6 0.00 0.00 0.00 84 1021.2
20181216054906 -1 269 0.0 0.0 0.00 0.00 0.00 82 1021.3
20181216053906 -1 269 3.2 4.8 0.00 0.00 0.00 82 1021.1
20181216053406 -1 57 1.6 3.2 0.00 0.00 0.00 82 1020.8
20181216051906 -1 57 1.6 4.8 0.00 0.00 0.00 81 1020.7
20181216051405 -1 57 1.6 4.8 0.00 0.00 0.00 81 1020.7
20181216050906 -1 53 1.6 4.8 0.00 0.00 0.00 81 1021.1
20181216044407 0 248 0.0 1.6 0.00 0.00 0.00 78 1020.8
20181216043407 0 271 4.8 4.8 0.00 0.00 0.00 76 1020.9
20181216041406 0 21 3.2 4.8 0.00 0.00 0.00 75 1020.8
20181216040405 0 51 1.6 8.0 0.00 0.00 0.00 74 1020.9
20181216034906 0 55 4.8 9.7 0.00 0.00 0.00 74 1021.1
20181216033906 0 43 8.0 9.7 0.00 0.00 0.00 74 1021.0
20181216033406 0 33 4.8 11.3 0.00 0.00 0.00 74 1021.0
20181216031406 0 39 4.8 8.0 0.00 0.00 0.00 76 1021.1
20181216024905 -1 44 3.2 4.8 0.00 0.00 0.00 77 1021.2
20181216024406 -1 39 3.2 8.0 0.00 0.00 0.00 77 1021.1
20181216023906 -1 32 4.8 8.0 0.00 0.00 0.00 78 1021.0
20181216021407 -1 43 4.8 4.8 0.00 0.00 0.00 78 1021.2
20181216020405 -1 67 3.2 4.8 0.00 0.00 0.00 78 1021.3
20181216014406 -1 44 8.0 9.7 0.00 0.00 0.00 78 1021.4
20181216013906 -1 39 4.8 9.7 0.00 0.00 0.00 78 1021.5
20181216013406 -1 38 4.8 11.3 0.00 0.00 0.00 78 1021.5
20181216011906 -2 41 8.0 9.7 0.00 0.00 0.00 78 1021.4
20181216011406 -1 42 6.4 8.0 0.00 0.00 0.00 78 1021.5
20181216010905 -1 44 4.8 4.8 0.00 0.00 0.00 78 1021.5
20181216010406 -1 25 4.8 4.8 0.00 0.00 0.00 77 1021.4
20181216004906 -1 45 4.8 4.8 0.00 0.00 0.00 76 1021.2
20181216004406 -1 51 4.8 8.0 0.00 0.00 0.00 76 1021.3
20181216003405 -1 30 4.8 9.7 0.00 0.00 0.00 76 1021.4
20181216001906 -1 43 3.2 4.8 0.00 0.00 0.00 76 1021.5
20181216000905 -1 36 4.8 4.8 0.00 0.00 0.00 74 1021.3
20181216000405 -1 51 4.8 8.0 0.00 0.00 0.00 74 1021.3
20181215234324 -1 42 6.4 8.0 0.00 0.00 0.00 74 1021.3
20181215233824 -1 38 8.0 8.0 0.00 0.00 0.00 74 1021.3
20181215233324 -1 46 4.8 8.0 0.00 0.00 0.00 74 1021.4
20181215230825 0 75 0.0 1.6 0.00 0.00 0.00 71 1021.3
20181215224827 0 48 4.8 9.7 0.00 0.00 0.00 68 1021.1
20181215224324 0 39 11.3 14.5 0.00 0.00 0.00 69 1021.0
20181215223824 0 50 9.7 12.9 0.00 0.00 0.00 68 1021.1
20181215223325 0 55 4.8 9.7 0.00 0.00 0.00 67 1021.1
20181215221324 0 32 9.7 19.3 0.00 0.00 0.00 67 1021.0
20181215220824 0 40 12.9 19.3 0.00 0.00 0.00 67 1021.0
20181215220324 0 43 14.5 19.3 0.00 0.00 0.00 69 1021.2
20181215213825 0 27 9.7 14.5 0.00 0.00 0.00 70 1021.3
20181215211825 0 31 12.9 19.3 0.00 0.00 0.00 71 1021.1
20181215211326 0 40 14.5 19.3 0.00 0.00 0.00 72 1021.1
20181215204824 0 38 8.0 12.9 0.00 0.00 0.00 70 1021.2
20181215204325 0 27 8.0 11.3 0.00 0.00 0.00 71 1021.3
20181215203824 0 19 8.0 12.9 0.00 0.00 0.00 71 1021.3
20181215203325 0 33 9.7 16.1 0.00 0.00 0.00 71 1021.3
20181215201824 0 43 4.8 9.7 0.00 0.00 0.00 71 1021.2
20181215200824 0 25 4.8 12.9 0.00 0.00 0.00 72 1021.0
20181215200325 0 38 11.3 16.1 0.00 0.00 0.00 71 1020.9
20181215194824 0 37 9.7 14.5 0.00 0.00 0.00 71 1020.9
20181215194324 0 42 8.0 12.9 0.00 0.00 0.00 71 1020.9
20181215193824 0 47 8.0 11.3 0.00 0.00 0.00 72 1020.9
20181215193325 0 32 8.0 12.9 0.00 0.00 0.00 73 1020.9
20181215191325 0 34 8.0 9.7 0.00 0.00 0.00 73 1021.1
20181215190824 0 39 9.7 14.5 0.00 0.00 0.00 73 1021.1
20181215190325 0 38 6.4 9.7 0.00 0.00 0.00 73 1021.1
20181215184824 0 25 9.7 14.5 0.00 0.00 0.00 71 1021.0
20181215184324 0 34 11.3 16.1 0.00 0.00 0.00 71 1021.1
20181215183825 0 51 9.7 12.9 0.00 0.00 0.00 70 1021.1
20181215183324 0 48 8.0 11.3 0.00 0.00 0.00 70 1021.2
20181215181824 0 31 8.0 12.9 0.00 0.00 0.00 69 1021.2
20181215181324 0 30 8.0 12.9 0.00 0.00 0.00 69 1021.2
20181215180324 1 35 8.0 16.1 0.00 0.00 0.00 68 1021.1
20181215174824 1 20 9.7 16.1 0.00 0.00 0.00 67 1020.7
20181215174324 1 35 11.3 16.1 0.00 0.00 0.00 68 1020.6
20181215173824 1 24 14.5 19.3 0.00 0.00 0.00 68 1020.6
20181215173325 1 43 12.9 19.3 0.00 0.00 0.00 68 1020.5
20181215171825 1 23 11.3 16.1 0.00 0.00 0.00 68 1020.3
20181215171325 1 37 9.7 14.5 0.00 0.00 0.00 68 1020.3
20181215170824 1 37 11.3 14.5 0.00 0.00 0.00 69 1020.3
20181215170324 1 26 9.7 14.5 0.00 0.00 0.00 69 1020.2
20181215164824 1 42 11.3 16.1 0.00 0.00 0.00 68 1020.1
20181215164323 1 32 14.5 16.1 0.00 0.00 0.00 66 1020.1
20181215163824 2 41 8.0 12.9 0.00 0.00 0.00 67 1020.1
20181215163324 2 43 9.7 14.5 0.00 0.00 0.00 65 1020.1
20181215161324 3 82 3.2 4.8 0.00 0.00 0.00 60 1020.0
20181215160824 3 70 3.2 4.8 0.00 0.00 0.00 60 1020.0
20181215160324 3 70 3.2 4.8 0.00 0.00 0.00 59 1020.0